Location: Goettingen
(51.5300°N, 9.9433°E)
Time: 19:08:28
(UTC+02:00)

ISS - Pass Details

Date: 16 May 2026
Orbit: 414 x 424 km, 51.6° (Epoch: 13 May)

Event Time Altitude Azimuth Distance (km) Brightness Sun altitude
Rises 22:33:34 0° 276° (W) 2,353 0.8 -10.8°
Reaches altitude 10° 22:35:39 10° 276° (W) 1,490 -0.3 -11.0°
Maximum altitude 22:39:00 88° 192° (SSW) 421 -3.8 -11.3°
Enters shadow 22:42:10 11° 98° (E) 1,416 -1.5 -11.6°
